This is the latest recevied weather packets stored in our database for station/object K4VEB. If no packets are shown the sender has not sent any weather packets the latest 10 day(s).
| Time | Temp. | Humidity | Pressure | Rain* | Wind** | Luminosity | Snow |
|---|---|---|---|---|---|---|---|
| 1777814699 | 18.33° C | 81% | 1018 hPa | 0 mm | - | 360 W/m² | - |
| 1777814396 | 18.33° C | 81% | 1017.9 hPa | 0 mm | - | 342 W/m² | - |
| 1777814093 | 17.78° C | 84% | 1018.1 hPa | 0 mm | - | 322 W/m² | - |
| 1777813789 | 17.78° C | 85% | 1018 hPa | 0 mm | - | 307 W/m² | - |
| 1777813487 | 17.78° C | 87% | 1017.8 hPa | 0 mm | - | 284 W/m² | - |
| 1777813185 | 17.78° C | 88% | 1017.8 hPa | 0 mm | - | 278 W/m² | - |
| 1777812882 | 17.22° C | 90% | 1017.8 hPa | 0 mm | - | 261 W/m² | - |
| 1777812578 | 16.67° C | 91% | 1017.8 hPa | 0 mm | - | 257 W/m² | - |
| 1777812276 | 16.67° C | 91% | 1017.8 hPa | 0 mm | - | 244 W/m² | - |
| 1777811975 | 16.67° C | 91% | 1017.6 hPa | 0 mm | - | 155 W/m² | - |
| 1777811673 | 16.67° C | 93% | 1017.7 hPa | 0 mm | - | 191 W/m² | - |
| 1777811368 | 16.11° C | 93% | 1017.7 hPa | 0 mm | - | 210 W/m² | - |
| 1777811066 | 16.11° C | 93% | 1017.7 hPa | 0 mm | - | 80 W/m² | - |
| 1777810763 | 16.11° C | 93% | 1017.6 hPa | 0 mm | - | 85 W/m² | - |
| 1777810460 | 16.11° C | 93% | 1017.7 hPa | 0 mm | - | 131 W/m² | - |
| 1777810155 | 15.56° C | 94% | 1017.6 hPa | 0 mm | - | 103 W/m² | - |
| 1777809853 | 15.56° C | 93% | 1017.5 hPa | 0 mm | - | 112 W/m² | - |
| 1777809550 | 15.56° C | 94% | 1017.6 hPa | 0 mm | - | 43 W/m² | - |
| 1777809248 | 15.56° C | 93% | 1017.5 hPa | 0 mm | - | 39 W/m² | - |
| 1777808946 | 15.56° C | 93% | 1017.5 hPa | 0 mm | - | 38 W/m² | - |
| 1777808642 | 15.56° C | 94% | 1017.2 hPa | 0 mm | - | 44 W/m² | - |
| 1777808339 | 15.56° C | 94% | 1017.1 hPa | 0 mm | - | 37 W/m² | - |
| 1777808038 | 15.56° C | 94% | 1017 hPa | 0 mm | - | 35 W/m² | - |
| 1777807734 | 15.56° C | 94% | 1017.1 hPa | 0 mm | - | 35 W/m² | - |
| 1777807434 | 15.56° C | 94% | 1017 hPa | 0 mm | - | 30 W/m² | - |
* Rain latest hour (hover to see other rain measurements)
** Current wind speed in m/s (hover to see current wind gust speed)